Regional Weather Roundup
Issued by NWS Memphis, TN

Home | Current Version | Previous Version | Text Only | Print | Product List | Glossary On
Versions: 1 2 3 4 5 6 7 8 9 10 11 12 13 14 15 16 17 18 19 20 21 22 23 24 25 26 27 28 29 30 31 32 33 34 35 36 37 38 39 40 41 42 43 44 45 46 47 48 49 50
637
ASUS44 KMEG 230800
RWRMEG
MEMPHIS CWA HOURLY WEATHER ROUNDUP
NATIONAL WEATHER SERVICE MEMPHIS TN
300 AM CDT MON APR 23 2018

...WEST TENNESSEE...

CITY           SKY/WX    TMP DP  RH WIND       PRES   REMARKS
MEMPHIS INTL   DRZL/FOG  57  57 100 W8G18     29.79S VSB 1/2
NWS MEMPHIS      N/A     58 N/A N/A MISG        N/A
JACKSON        CLOUDY    58  58 100 SW6       29.75S
DYERSBURG      LGT RAIN  57  57 100 W6        29.75F


...EASTERN ARKANSAS...

CITY           SKY/WX    TMP DP  RH WIND       PRES   REMARKS
JONESBORO      LGT RAIN  58  58 100 NW5       29.79F
WEST MEMPHIS   CLOUDY    57  57 100 W8        29.79S FOG
BATESVILLE     CLOUDY    55  54  96 NW7       29.84F FOG
NEWPORT        LGT RAIN  56  56 100 NW9       29.82F FOG
WALNUT RIDGE   LGT RAIN  57  56  96 N10       29.81F
BLYTHEVILLE    LGT RAIN  58  56  93 NW8       29.76F
SEARCY         CLOUDY    55  55 100 W6        29.86F
STUTTGART      CLOUDY    55  53  93 W9        29.87F
PINE BLUFF     CLOUDY    54  51  90 W10       29.89S
MONTICELLO     CLOUDY    55  50  83 W7        29.89F


...NORTH MISSISSIPPI...

CITY           SKY/WX    TMP DP  RH WIND       PRES   REMARKS
TUPELO         CLOUDY    61  57  87 S7        29.82R
BATESVILLE       N/A    N/A N/A N/A MISG        N/A
CLARKSDALE     CLOUDY    57  57 100 W8        29.85S
GREENWOOD      CLOUDY    58  55  90 SW5       29.87S
COLUMBUS       CLOUDY    60  60 100 SW7       29.84S
STARKVILLE     CLOUDY    59  57  94 W6        29.87S
GOLDEN TRIANGL CLOUDY    60  58  92 SW6       29.86S


...SOUTHEAST MISSOURI...

CITY           SKY/WX    TMP DP  RH WIND       PRES   REMARKS
MALDEN         LGT RAIN  59  55  88 NE13G18   29.79F
WEST PLAINS    LGT RAIN  54  53  97 N9        29.89F FOG
POPLAR BLUFF   RAIN      57  56  96 N12       29.80F FOG
CAPE GIRARDEAU LGT RAIN  54  52  93 NE22      29.81F


...NORTHWEST ALABAMA...

CITY           SKY/WX    TMP DP  RH WIND       PRES   REMARKS
MUSCLE SHOALS  CLOUDY    60  57  89 S3        29.84R


...MIDDLE TENNESSEE...

CITY           SKY/WX    TMP DP  RH WIND       PRES   REMARKS
NASHVILLE      RAIN      58  55  90 E18G24    29.85R FOG
CLARKSVILLE    LGT RAIN  57  53  86 E18G30    29.79F


...WESTERN KENTUCKY...

CITY           SKY/WX    TMP DP  RH WIND       PRES   REMARKS
PADUCAH        LGT RAIN  56  53  90 NE21G36   29.77F
FORT CAMPBELL  DRIZZLE   57  57 100 E21G28    29.78S


...CENTRAL ARKANSAS...

CITY           SKY/WX    TMP DP  RH WIND       PRES   REMARKS
LITTLE ROCK    CLOUDY    55  52  89 W9        29.88F


SKY/WX REPORTED AS FAIR MEANS FEW OR NO CLOUDS BELOW
12 THOUSAND FEET.





USA.gov is the U.S. government's official web portal to all federal, state and local government web resources and services.